| time (UTC) | temp F | wind direction | speed MPH | gust MPH | rain 1hr in | rain 24hr in | rain mn in | humidity % | barometer mb |
| 20260510041054 | 49 | 316 | 0.0 | 0.0 | 0.00 | 0.00 | 0.00 | ||
| 20260510040548 | 48 | 316 | 0.0 | 0.0 | 0.00 | 0.00 | 0.00 | ||
| 20260510040043 | 49 | 316 | 0.0 | 0.0 | 0.00 | 0.00 | 0.00 | ||
| 20260510035538 | 48 | 316 | 0.0 | 0.0 | 0.00 | 0.00 | 0.00 | ||
| 20260510035030 | 50 | 316 | 0.0 | 0.0 | 0.00 | 0.00 | 0.00 | ||
| 20260510034525 | 50 | 316 | 0.0 | 0.0 | 0.00 | 0.00 | 0.00 | ||
| 20260510034019 | 51 | 316 | 0.0 | 0.0 | 0.00 | 0.00 | 0.00 | ||
| 20260510033009 | 50 | 316 | 0.0 | 0.0 | 0.00 | 0.00 | 0.00 | ||
| 20260510032504 | 50 | 316 | 0.0 | 0.0 | 0.00 | 0.00 | 0.00 | ||
| 20260510031956 | 50 | 316 | 0.0 | 0.0 | 0.00 | 0.00 | 0.00 | ||
| 20260510031451 | 49 | 316 | 0.0 | 0.0 | 0.00 | 0.00 | 0.00 | ||
| 20260510030946 | 50 | 316 | 0.0 | 0.0 | 0.00 | 0.00 | 0.00 | ||
| 20260510030441 | 50 | 316 | 0.0 | 0.0 | 0.00 | 0.00 | 0.00 | ||
| 20260510025936 | 50 | 316 | 0.0 | 0.0 | 0.00 | 0.00 | 0.00 | ||
| 20260510025431 | 51 | 316 | 0.0 | 0.0 | 0.00 | 0.00 | 0.00 | ||
| 20260510024923 | 52 | 316 | 0.0 | 0.0 | 0.00 | 0.00 | 0.00 | ||
| 20260510024418 | 52 | 316 | 0.0 | 0.0 | 0.00 | 0.00 | 0.00 | ||
| 20260510023913 | 52 | 316 | 0.0 | 0.0 | 0.00 | 0.00 | 0.00 | ||
| 20260510023408 | 53 | 316 | 0.0 | 0.0 | 0.00 | 0.00 | 0.00 | ||
| 20260510022903 | 52 | 316 | 0.0 | 0.0 | 0.00 | 0.00 | 0.00 | ||
| 20260510022359 | 53 | 316 | 0.0 | 0.0 | 0.00 | 0.00 | 0.00 | ||
| 20260510021851 | 52 | 316 | 0.0 | 0.0 | 0.00 | 0.00 | 0.00 | ||
| 20260510021346 | 52 | 316 | 0.0 | 0.0 | 0.00 | 0.00 | 0.00 | ||
| 20260510020336 | 53 | 316 | 0.0 | 0.0 | 0.00 | 0.00 | 0.00 | ||
| 20260510015831 | 52 | 316 | 0.0 | 0.0 | 0.00 | 0.00 | 0.00 | ||
| 20260510015326 | 53 | 316 | 0.0 | 0.0 | 0.00 | 0.00 | 0.00 | ||
| 20260510014819 | 53 | 316 | 0.0 | 0.0 | 0.00 | 0.00 | 0.00 | ||
| 20260510014314 | 54 | 316 | 0.0 | 0.0 | 0.00 | 0.00 | 0.00 | ||
| 20260510013809 | 53 | 316 | 0.0 | 0.0 | 0.00 | 0.00 | 0.00 | ||
| 20260510013304 | 54 | 316 | 0.0 | 0.0 | 0.00 | 0.00 | 0.00 | ||
| 20260510012759 | 53 | 316 | 0.0 | 0.0 | 0.00 | 0.00 | 0.00 | ||
| 20260510011747 | 56 | 316 | 0.0 | 2.0 | 0.00 | 0.00 | 0.00 | ||
| 20260510011242 | 55 | 347 | 0.0 | 0.0 | 0.00 | 0.00 | 0.00 | ||
| 20260510010737 | 56 | 347 | 0.0 | 0.0 | 0.00 | 0.00 | 0.00 | ||
| 20260510010232 | 57 | 347 | 0.0 | 0.0 | 0.00 | 0.00 | 0.00 | ||
| 20260510005726 | 58 | 347 | 0.0 | 1.0 | 0.00 | 0.00 | 0.00 | ||
| 20260510005222 | 57 | 8 | 0.0 | 0.0 | 0.00 | 0.00 | 0.00 | ||
| 20260510004714 | 58 | 8 | 0.0 | 1.0 | 0.00 | 0.00 | 0.00 | ||
| 20260510004209 | 57 | 281 | 0.0 | 1.0 | 0.00 | 0.00 | 0.00 | ||
| 20260510003704 | 59 | 291 | 1.0 | 1.0 | 0.00 | 0.00 | 0.00 | ||
| 20260510003200 | 59 | 17 | 0.0 | 0.0 | 0.00 | 0.00 | 0.00 | ||
| 20260510002655 | 59 | 17 | 0.0 | 0.0 | 0.00 | 0.00 | 0.00 | ||
| 20260510002150 | 61 | 17 | 0.0 | 0.0 | 0.00 | 0.00 | 0.00 | ||
| 20260510001642 | 62 | 17 | 0.0 | 0.0 | 0.00 | 0.00 | 0.00 | ||
| 20260510001138 | 62 | 17 | 0.0 | 0.0 | 0.00 | 0.00 | 0.00 | ||
| 20260510000633 | 64 | 17 | 0.0 | 2.0 | 0.00 | 0.00 | 0.00 | ||
| 20260510000128 | 63 | 34 | 0.0 | 0.0 | 0.00 | 0.00 | 0.00 | ||
| 20260509235623 | 64 | 53 | 0.0 | 0.0 | 0.00 | 0.00 | 0.00 | ||
| 20260509235118 | 66 | 53 | 0.0 | 2.0 | 0.00 | 0.00 | 0.00 | ||
| 20260509234609 | 66 | 53 | 0.0 | 1.0 | 0.00 | 0.00 | 0.00 | ||
| 20260509234104 | 68 | 18 | 0.0 | 2.0 | 0.00 | 0.00 | 0.00 | ||
| 20260509233559 | 68 | 21 | 0.0 | 5.0 | 0.00 | 0.00 | 0.00 | ||
| 20260509233055 | 67 | 28 | 0.0 | 6.0 | 0.00 | 0.00 | 0.00 | ||
| 20260509232550 | 69 | 359 | 4.0 | 2.0 | 0.00 | 0.00 | 0.00 | ||
| 20260509232045 | 70 | 8 | 0.0 | 5.0 | 0.00 | 0.00 | 0.00 | ||
| 20260509231537 | 70 | 264 | 1.0 | 3.0 | 0.00 | 0.00 | 0.00 | ||
| 20260509231032 | 72 | 345 | 0.0 | 3.0 | 0.00 | 0.00 | 0.00 | ||
| 20260509230528 | 71 | 345 | 1.0 | 3.0 | 0.00 | 0.00 | 0.00 | ||
| 20260509230023 | 72 | 340 | 0.0 | 4.0 | 0.00 | 0.00 | 0.00 | ||
| 20260509225518 | 71 | 8 | 0.0 | 3.0 | 0.00 | 0.00 | 0.00 | ||
| 20260509225013 | 73 | 10 | 1.0 | 2.0 | 0.00 | 0.00 | 0.00 | ||
| 20260509224505 | 72 | 23 | 0.0 | 4.0 | 0.00 | 0.00 | 0.00 | ||
| 20260509224000 | 73 | 46 | 1.0 | 4.0 | 0.00 | 0.00 | 0.00 | ||
| 20260509223454 | 73 | 51 | 0.0 | 5.0 | 0.00 | 0.00 | 0.00 | ||
| 20260509222445 | 72 | 51 | 0.0 | 3.0 | 0.00 | 0.00 | 0.00 | ||
| 20260509221940 | 72 | 6 | 0.0 | 4.0 | 0.00 | 0.00 | 0.00 | ||
| 20260509221432 | 73 | 46 | 0.0 | 6.0 | 0.00 | 0.00 | 0.00 | ||
| 20260509220928 | 76 | 10 | 1.0 | 4.0 | 0.00 | 0.00 | 0.00 | ||
| 20260509220423 | 78 | 25 | 2.0 | 5.0 | 0.00 | 0.00 | 0.00 | ||
| 20260509215413 | 77 | 58 | 0.0 | 7.0 | 0.00 | 0.00 | 0.00 | ||
| 20260509214908 | 77 | 28 | 2.0 | 5.0 | 0.00 | 0.00 | 0.00 | ||
| 20260509214401 | 79 | 89 | 0.0 | 6.0 | 0.00 | 0.00 | 0.00 | ||
| 20260509213856 | 78 | 17 | 3.0 | 6.0 | 0.00 | 0.00 | 0.00 | ||
| 20260509213351 | 78 | 14 | 4.0 | 6.0 | 0.00 | 0.00 | 0.00 | ||
| 20260509212846 | 78 | 23 | 0.0 | 7.0 | 0.00 | 0.00 | 0.00 | ||
| 20260509212341 | 77 | 34 | 1.0 | 9.0 | 0.00 | 0.00 | 0.00 | ||
| 20260509211836 | 75 | 52 | 1.0 | 7.0 | 0.00 | 0.00 | 0.00 | ||
| 20260509211329 | 75 | 27 | 1.0 | 6.0 | 0.00 | 0.00 | 0.00 | ||
| 20260509210824 | 73 | 23 | 0.0 | 6.0 | 0.00 | 0.00 | 0.00 | ||
| 20260509210319 | 74 | 11 | 1.0 | 8.0 | 0.00 | 0.00 | 0.00 | ||
| 20260509205815 | 74 | 295 | 2.0 | 6.0 | 0.00 | 0.00 | 0.00 | ||
| 20260509205310 | 74 | 243 | 1.0 | 6.0 | 0.00 | 0.00 | 0.00 | ||
| 20260509204805 | 73 | 27 | 1.0 | 6.0 | 0.00 | 0.00 | 0.00 | ||
| 20260509204257 | 72 | 295 | 1.0 | 2.0 | 0.00 | 0.00 | 0.00 | ||
| 20260509203248 | 72 | 281 | 2.0 | 5.0 | 0.00 | 0.00 | 0.00 | ||
| 20260509202743 | 73 | 304 | 0.0 | 3.0 | 0.00 | 0.00 | 0.00 | ||
| 20260509201734 | 73 | 307 | 1.0 | 2.0 | 0.00 | 0.00 | 0.00 | ||
| 20260509201226 | 73 | 60 | 0.0 | 6.0 | 0.00 | 0.00 | 0.00 | ||
| 20260509200722 | 72 | 198 | 3.0 | 7.0 | 0.00 | 0.00 | 0.00 | ||
| 20260509195712 | 71 | 141 | 2.0 | 8.0 | 0.00 | 0.00 | 0.00 | ||
| 20260509195208 | 74 | 118 | 5.0 | 12.0 | 0.00 | 0.00 | 0.00 | ||
| 20260509194703 | 74 | 236 | 4.0 | 8.0 | 0.00 | 0.00 | 0.00 | ||
| 20260509194155 | 75 | 141 | 3.0 | 9.0 | 0.00 | 0.00 | 0.00 | ||
| 20260509193146 | 78 | 138 | 4.0 | 2.0 | 0.00 | 0.00 | 0.00 | ||
| 20260509192137 | 73 | 163 | 1.0 | 7.0 | 0.00 | 0.00 | 0.00 | ||
| 20260509191632 | 76 | 221 | 5.0 | 8.0 | 0.00 | 0.00 | 0.00 | ||
| 20260509191124 | 73 | 105 | 5.0 | 7.0 | 0.00 | 0.00 | 0.00 | ||
| 20260509190620 | 73 | 214 | 1.0 | 5.0 | 0.00 | 0.00 | 0.00 | ||
| 20260509190115 | 73 | 113 | 2.0 | 5.0 | 0.00 | 0.00 | 0.00 | ||
| 20260509185610 | 76 | 177 | 5.0 | 5.0 | 0.00 | 0.00 | 0.00 | ||
| 20260509185106 | 78 | 108 | 2.0 | 6.0 | 0.00 | 0.00 | 0.00 | ||
| 20260509184601 | 75 | 1 | 0.0 | 7.0 | 0.00 | 0.00 | 0.00 | ||
| 20260509184053 | 76 | 134 | 3.0 | 6.0 | 0.00 | 0.00 | 0.00 | ||
| 20260509183549 | 75 | 167 | 2.0 | 10.0 | 0.00 | 0.00 | 0.00 | ||
| 20260509183044 | 75 | 20 | 2.0 | 7.0 | 0.00 | 0.00 | 0.00 | ||
| 20260509182539 | 77 | 124 | 4.0 | 8.0 | 0.00 | 0.00 | 0.00 | ||
| 20260509182035 | 74 | 79 | 2.0 | 6.0 | 0.00 | 0.00 | 0.00 | ||
| 20260509181530 | 76 | 73 | 0.0 | 5.0 | 0.00 | 0.00 | 0.00 | ||
| 20260509181022 | 72 | 87 | 1.0 | 4.0 | 0.00 | 0.00 | 0.00 | ||
| 20260509180518 | 73 | 31 | 1.0 | 5.0 | 0.00 | 0.00 | 0.00 | ||
| 20260509180012 | 73 | 38 | 0.0 | 5.0 | 0.00 | 0.00 | 0.00 | ||
| 20260509175507 | 70 | 304 | 0.0 | 4.0 | 0.00 | 0.00 | 0.00 | ||
| 20260509175003 | 70 | 342 | 0.0 | 2.0 | 0.00 | 0.00 | 0.00 | ||
| 20260509174458 | 73 | 83 | 0.0 | 4.0 | 0.00 | 0.00 | 0.00 | ||
| 20260509173949 | 72 | 48 | 0.0 | 4.0 | 0.00 | 0.00 | 0.00 | ||
| 20260509173444 | 69 | 31 | 1.0 | 4.0 | 0.00 | 0.00 | 0.00 | ||
| 20260509172940 | 68 | 60 | 0.0 | 2.0 | 0.00 | 0.00 | 0.00 | ||
| 20260509172435 | 68 | 63 | 0.0 | 2.0 | 0.00 | 0.00 | 0.00 | ||
| 20260509171930 | 67 | 35 | 0.0 | 2.0 | 0.00 | 0.00 | 0.00 | ||
| 20260509171426 | 66 | 32 | 1.0 | 2.0 | 0.00 | 0.00 | 0.00 | ||
| 20260509170918 | 67 | 53 | 0.0 | 3.0 | 0.00 | 0.00 | 0.00 | ||
| 20260509170413 | 66 | 41 | 2.0 | 3.0 | 0.00 | 0.00 | 0.00 | ||
| 20260509165908 | 66 | 35 | 1.0 | 1.0 | 0.00 | 0.00 | 0.00 | ||
| 20260509165404 | 68 | 65 | 1.0 | 5.0 | 0.00 | 0.00 | 0.00 | ||
| 20260509164859 | 68 | 13 | 4.0 | 7.0 | 0.00 | 0.00 | 0.00 | ||
| 20260509164354 | 70 | 288 | 0.0 | 6.0 | 0.00 | 0.00 | 0.00 | ||
| 20260509163847 | 70 | 60 | 0.0 | 5.0 | 0.00 | 0.00 | 0.00 | ||
| 20260509163341 | 71 | 359 | 4.0 | 6.0 | 0.00 | 0.00 | 0.00 | ||
| 20260509162836 | 72 | 56 | 0.0 | 5.0 | 0.00 | 0.00 | 0.00 | ||
| 20260509162332 | 71 | 11 | 1.0 | 5.0 | 0.00 | 0.00 | 0.00 | ||
| 20260509161826 | 69 | 35 | 3.0 | 0.0 | 0.00 | 0.00 | 0.00 | ||
| 20260509161321 | 67 | 262 | 0.0 | 5.0 | 0.00 | 0.00 | 0.00 | ||
| 20260509160814 | 68 | 45 | 1.0 | 5.0 | 0.00 | 0.00 | 0.00 | ||
| 20260509160309 | 69 | 49 | 0.0 | 3.0 | 0.00 | 0.00 | 0.00 | ||
| 20260509155804 | 69 | 314 | 0.0 | 5.0 | 0.00 | 0.00 | 0.00 | ||
| 20260509155259 | 70 | 44 | 1.0 | 5.0 | 0.00 | 0.00 | 0.00 | ||
| 20260509154755 | 69 | 349 | 4.0 | 3.0 | 0.00 | 0.00 | 0.00 | ||
| 20260509154250 | 68 | 353 | 0.0 | 1.0 | 0.00 | 0.00 | 0.00 | ||
| 20260509153742 | 66 | 70 | 0.0 | 0.0 | 0.00 | 0.00 | 0.00 | ||
| 20260509153238 | 67 | 70 | 0.0 | 3.0 | 0.00 | 0.00 | 0.00 | ||
| 20260509152733 | 68 | 359 | 1.0 | 5.0 | 0.00 | 0.00 | 0.00 | ||
| 20260509152228 | 65 | 35 | 0.0 | 4.0 | 0.00 | 0.00 | 0.00 | ||
| 20260509151723 | 66 | 32 | 2.0 | 5.0 | 0.00 | 0.00 | 0.00 | ||
| 20260509151218 | 66 | 264 | 0.0 | 2.0 | 0.00 | 0.00 | 0.00 | ||
| 20260509150711 | 66 | 104 | 1.0 | 6.0 | 0.00 | 0.00 | 0.00 | ||
| 20260509150206 | 64 | 136 | 4.0 | 5.0 | 0.00 | 0.00 | 0.00 | ||
| 20260509145701 | 64 | 139 | 3.0 | 7.0 | 0.00 | 0.00 | 0.00 | ||
| 20260509145156 | 62 | 167 | 5.0 | 8.0 | 0.00 | 0.00 | 0.00 | ||
| 20260509144652 | 62 | 231 | 6.0 | 7.0 | 0.00 | 0.00 | 0.00 | ||
| 20260509144147 | 61 | 215 | 5.0 | 7.0 | 0.00 | 0.00 | 0.00 | ||
| 20260509143639 | 62 | 173 | 3.0 | 7.0 | 0.00 | 0.00 | 0.00 | ||
| 20260509143134 | 60 | 205 | 6.0 | 8.0 | 0.00 | 0.00 | 0.00 | ||
| 20260509142629 | 61 | 239 | 5.0 | 6.0 | 0.00 | 0.00 | 0.00 | ||
| 20260509142125 | 61 | 200 | 5.0 | 5.0 | 0.00 | 0.00 | 0.00 | ||
| 20260509141620 | 62 | 142 | 3.0 | 4.0 | 0.00 | 0.00 | 0.00 | ||
| 20260509141115 | 61 | 134 | 3.0 | 5.0 | 0.00 | 0.00 | 0.00 | ||
| 20260509140608 | 60 | 155 | 2.0 | 4.0 | 0.00 | 0.00 | 0.00 | ||
| 20260509135558 | 60 | 96 | 0.0 | 4.0 | 0.00 | 0.00 | 0.00 | ||
| 20260509135053 | 60 | 96 | 0.0 | 3.0 | 0.00 | 0.00 | 0.00 | ||
| 20260509134549 | 60 | 158 | 2.0 | 6.0 | 0.00 | 0.00 | 0.00 | ||
| 20260509134044 | 59 | 176 | 4.0 | 5.0 | 0.00 | 0.00 | 0.00 | ||
| 20260509133031 | 60 | 165 | 3.0 | 7.0 | 0.00 | 0.00 | 0.00 | ||
| 20260509132527 | 61 | 181 | 4.0 | 7.0 | 0.00 | 0.00 | 0.00 | ||
| 20260509132022 | 59 | 187 | 3.0 | 8.0 | 0.00 | 0.00 | 0.00 | ||
| 20260509131517 | 59 | 179 | 4.0 | 7.0 | 0.00 | 0.00 | 0.00 | ||
| 20260509131012 | 59 | 155 | 4.0 | 4.0 | 0.00 | 0.00 | 0.00 | ||
| 20260509130505 | 59 | 219 | 2.0 | 0.0 | 0.00 | 0.00 | 0.00 | ||
| 20260509130000 | 60 | 120 | 0.0 | 3.0 | 0.00 | 0.00 | 0.00 | ||
| 20260509125455 | 58 | 120 | 0.0 | 3.0 | 0.00 | 0.00 | 0.00 | ||
| 20260509124950 | 58 | 208 | 2.0 | 4.0 | 0.00 | 0.00 | 0.00 | ||
| 20260509124446 | 58 | 221 | 3.0 | 6.0 | 0.00 | 0.00 | 0.00 | ||
| 20260509123941 | 58 | 186 | 1.0 | 8.0 | 0.00 | 0.00 | 0.00 | ||
| 20260509123433 | 59 | 98 | 4.0 | 5.0 | 0.00 | 0.00 | 0.00 | ||
| 20260509122928 | 57 | 163 | 2.0 | 7.0 | 0.00 | 0.00 | 0.00 | ||
| 20260509122423 | 58 | 160 | 4.0 | 7.0 | 0.00 | 0.00 | 0.00 | ||
| 20260509121918 | 58 | 120 | 6.0 | 3.0 | 0.00 | 0.00 | 0.00 | ||
| 20260509121413 | 58 | 172 | 0.0 | 2.0 | 0.00 | 0.00 | 0.00 | ||
| 20260509120908 | 58 | 172 | 0.0 | 4.0 | 0.00 | 0.00 | 0.00 | ||
| 20260509120400 | 57 | 134 | 3.0 | 3.0 | 0.00 | 0.00 | 0.00 | ||
| 20260509115856 | 57 | 188 | 1.0 | 7.0 | 0.00 | 0.00 | 0.00 | ||
| 20260509115351 | 56 | 122 | 3.0 | 9.0 | 0.00 | 0.00 | 0.00 | ||
| 20260509114846 | 57 | 142 | 7.0 | 3.0 | 0.00 | 0.00 | 0.00 | ||
| 20260509114341 | 56 | 201 | 2.0 | 3.0 | 0.00 | 0.00 | 0.00 | ||
| 20260509113837 | 56 | 97 | 0.0 | 3.0 | 0.00 | 0.00 | 0.00 | ||
| 20260509113329 | 55 | 72 | 1.0 | 3.0 | 0.00 | 0.00 | 0.00 | ||
| 20260509112824 | 55 | 142 | 2.0 | 3.0 | 0.00 | 0.00 | 0.00 | ||
| 20260509112318 | 54 | 249 | 1.0 | 5.0 | 0.00 | 0.00 | 0.00 | ||
| 20260509111813 | 53 | 277 | 3.0 | 4.0 | 0.00 | 0.00 | 0.00 | ||
| 20260509111308 | 53 | 173 | 0.0 | 0.0 | 0.00 | 0.00 | 0.00 | ||
| 20260509110804 | 53 | 173 | 0.0 | 0.0 | 0.00 | 0.00 | 0.00 | ||
| 20260509110256 | 52 | 173 | 0.0 | 0.0 | 0.00 | 0.00 | 0.00 | ||
| 20260509105751 | 53 | 173 | 0.0 | 0.0 | 0.00 | 0.00 | 0.00 | ||
| 20260509105246 | 52 | 173 | 0.0 | 0.0 | 0.00 | 0.00 | 0.00 | ||
| 20260509104741 | 51 | 173 | 0.0 | 0.0 | 0.00 | 0.00 | 0.00 | ||
| 20260509104237 | 52 | 173 | 0.0 | 0.0 | 0.00 | 0.00 | 0.00 | ||
| 20260509103732 | 52 | 173 | 0.0 | 0.0 | 0.00 | 0.00 | 0.00 | ||
| 20260509103224 | 52 | 173 | 0.0 | 0.0 | 0.00 | 0.00 | 0.00 | ||
| 20260509102719 | 51 | 173 | 0.0 | 0.0 | 0.00 | 0.00 | 0.00 | ||
| 20260509102214 | 51 | 173 | 0.0 | 0.0 | 0.00 | 0.00 | 0.00 | ||
| 20260509101205 | 51 | 173 | 0.0 | 0.0 | 0.00 | 0.00 | 0.00 | ||
| 20260509100700 | 51 | 173 | 0.0 | 0.0 | 0.00 | 0.00 | 0.00 | ||
| 20260509100152 | 50 | 173 | 0.0 | 0.0 | 0.00 | 0.00 | 0.00 | ||
| 20260509095647 | 52 | 173 | 0.0 | 0.0 | 0.00 | 0.00 | 0.00 | ||
| 20260509095142 | 52 | 173 | 0.0 | 0.0 | 0.00 | 0.00 | 0.00 | ||
| 20260509094637 | 51 | 173 | 0.0 | 0.0 | 0.00 | 0.00 | 0.00 | ||
| 20260509094132 | 52 | 173 | 0.0 | 2.0 | 0.00 | 0.00 | 0.00 | ||
| 20260509093627 | 53 | 173 | 0.0 | 3.0 | 0.00 | 0.00 | 0.00 | ||
| 20260509093119 | 51 | 229 | 2.0 | 0.0 | 0.00 | 0.00 | 0.00 | ||
| 20260509092822 | 52 | 270 | 0.0 | 0.0 | 0.00 | 0.00 | 0.00 | ||
| 20260509092615 | 52 | 270 | 0.0 | 0.0 | 0.00 | 0.00 | 0.00 | ||
| 20260509092110 | 52 | 270 | 0.0 | 0.0 | 0.00 | 0.00 | 0.00 | ||
| 20260509091605 | 51 | 270 | 0.0 | 0.0 | 0.00 | 0.00 | 0.00 | ||
| 20260509091100 | 52 | 270 | 0.0 | 0.0 | 0.00 | 0.00 | 0.00 | ||
| 20260509090555 | 52 | 270 | 0.0 | 0.0 | 0.00 | 0.00 | 0.00 | ||
| 20260509090047 | 53 | 270 | 0.0 | 0.0 | 0.00 | 0.00 | 0.00 | ||
| 20260509085542 | 53 | 270 | 0.0 | 1.0 | 0.00 | 0.00 | 0.00 | ||
| 20260509085037 | 52 | 270 | 0.0 | 3.0 | 0.00 | 0.00 | 0.00 | ||
| 20260509084532 | 52 | 212 | 1.0 | 2.0 | 0.00 | 0.00 | 0.00 | ||
| 20260509084027 | 52 | 246 | 0.0 | 2.0 | 0.00 | 0.00 | 0.00 | ||
| 20260509083523 | 51 | 259 | 0.0 | 3.0 | 0.00 | 0.00 | 0.00 | ||
| 20260509083015 | 51 | 255 | 0.0 | 0.0 | 0.00 | 0.00 | 0.00 | ||
| 20260509082510 | 52 | 255 | 0.0 | 2.0 | 0.00 | 0.00 | 0.00 | ||
| 20260509082005 | 51 | 255 | 0.0 | 2.0 | 0.00 | 0.00 | 0.00 | ||
| 20260509081500 | 52 | 273 | 0.0 | 2.0 | 0.00 | 0.00 | 0.00 | ||
| 20260509080956 | 52 | 291 | 0.0 | 1.0 | 0.00 | 0.00 | 0.00 | ||
| 20260509080451 | 52 | 186 | 0.0 | 2.0 | 0.00 | 0.00 | 0.00 | ||
| 20260509075438 | 50 | 224 | 2.0 | 2.0 | 0.00 | 0.00 | 0.00 | ||
| 20260509074933 | 51 | 232 | 0.0 | 0.0 | 0.00 | 0.00 | 0.00 | ||
| 20260509074428 | 51 | 232 | 0.0 | 0.0 | 0.00 | 0.00 | 0.00 | ||
| 20260509073923 | 51 | 232 | 0.0 | 0.0 | 0.00 | 0.00 | 0.00 | ||
| 20260509073418 | 51 | 232 | 0.0 | 0.0 | 0.00 | 0.00 | 0.00 | ||
| 20260509072911 | 51 | 232 | 0.0 | 0.0 | 0.00 | 0.00 | 0.00 | ||
| 20260509072406 | 51 | 232 | 0.0 | 0.0 | 0.00 | 0.00 | 0.00 | ||
| 20260509071901 | 51 | 232 | 0.0 | 2.0 | 0.00 | 0.00 | 0.00 | ||
| 20260509071356 | 52 | 225 | 1.0 | 3.0 | 0.00 | 0.00 | 0.00 | ||
| 20260509070346 | 51 | 222 | 1.0 | 2.0 | 0.00 | 0.00 | 0.00 | ||
| 20260509065838 | 50 | 198 | 2.0 | 2.0 | 0.00 | 0.00 | 0.00 | ||
| 20260509065333 | 51 | 155 | 1.0 | 2.0 | 0.00 | 0.00 | 0.00 | ||
| 20260509064828 | 51 | 203 | 2.0 | 3.0 | 0.00 | 0.00 | 0.00 | ||
| 20260509064323 | 50 | 145 | 1.0 | 3.0 | 0.00 | 0.00 | 0.00 | ||
| 20260509063818 | 48 | 134 | 0.0 | 0.0 | 0.00 | 0.00 | 0.00 | ||
| 20260509063313 | 48 | 134 | 0.0 | 0.0 | 0.00 | 0.00 | 0.00 | ||
| 20260509062805 | 49 | 134 | 0.0 | 0.0 | 0.00 | 0.00 | 0.00 | ||
| 20260509062300 | 47 | 134 | 0.0 | 0.0 | 0.00 | 0.00 | 0.00 | ||
| 20260509061755 | 46 | 134 | 0.0 | 0.0 | 0.00 | 0.00 | 0.00 | ||
| 20260509061249 | 47 | 134 | 0.0 | 0.0 | 0.00 | 0.00 | 0.00 | ||
| 20260509060744 | 48 | 134 | 0.0 | 0.0 | 0.00 | 0.00 | 0.00 | ||
| 20260509060240 | 47 | 134 | 0.0 | 0.0 | 0.00 | 0.00 | 0.00 | ||
| 20260509055732 | 47 | 134 | 0.0 | 0.0 | 0.00 | 0.00 | 0.00 | ||
| 20260509055227 | 47 | 134 | 0.0 | 0.0 | 0.00 | 0.00 | 0.00 | ||
| 20260509054722 | 47 | 134 | 0.0 | 0.0 | 0.00 | 0.00 | 0.00 | ||
| 20260509054217 | 47 | 134 | 0.0 | 0.0 | 0.00 | 0.00 | 0.00 | ||
| 20260509053712 | 47 | 134 | 0.0 | 0.0 | 0.00 | 0.00 | 0.00 | ||
| 20260509053207 | 46 | 134 | 0.0 | 0.0 | 0.00 | 0.00 | 0.00 | ||
| 20260509052659 | 45 | 134 | 0.0 | 0.0 | 0.00 | 0.00 | 0.00 | ||
| 20260509052154 | 45 | 134 | 0.0 | 0.0 | 0.00 | 0.00 | 0.00 | ||
| 20260509051649 | 45 | 134 | 0.0 | 0.0 | 0.00 | 0.00 | 0.00 | ||
| 20260509051144 | 45 | 134 | 0.0 | 0.0 | 0.00 | 0.00 | 0.00 | ||
| 20260509050639 | 45 | 134 | 0.0 | 0.0 | 0.00 | 0.00 | 0.00 | ||
| 20260509050135 | 45 | 134 | 0.0 | 0.0 | 0.00 | 0.00 | 0.00 | ||
| 20260509045627 | 45 | 134 | 0.0 | 0.0 | 0.00 | 0.00 | 0.00 | ||
| 20260509045122 | 45 | 134 | 0.0 | 0.0 | 0.00 | 0.00 | 0.00 | ||
| 20260509044617 | 45 | 134 | 0.0 | 0.0 | 0.00 | 0.00 | 0.00 | ||
| 20260509044112 | 45 | 134 | 0.0 | 0.0 | 0.00 | 0.00 | 0.00 | ||
| 20260509043607 | 45 | 134 | 0.0 | 0.0 | 0.00 | 0.00 | 0.00 | ||
| 20260509043101 | 45 | 134 | 0.0 | 0.0 | 0.00 | 0.00 | 0.00 | ||
| 20260509042553 | 45 | 134 | 0.0 | 0.0 | 0.00 | 0.00 | 0.00 | ||
| 20260509042048 | 46 | 134 | 0.0 | 0.0 | 0.00 | 0.00 | 0.00 | ||
| 20260509041543 | 47 | 134 | 0.0 | 0.0 | 0.00 | 0.00 | 0.00 |